Location: Guadanolo
(41.9167°N, 12.9333°E)
Time: 17:45:15
(UTC+00:00)

ARGOS - Pass Details

Date: 16 September 2019
Orbit: 821 x 834 km, 98.5° (Epoch: 22 October)

Event Time Altitude Azimuth Distance (km) Brightness Sun altitude
Exits shadow 18:08:22 13° 114° (ESE) 2,236 4.8 -10.3°
Maximum altitude 18:12:05 26° 65° (ENE) 1,592 4.2 -11.0°
Drops below altitude 10° 18:16:25 10° 11° (N) 2,435 5.7 -11.8°
Sets 18:19:08 0° 359° (N) 3,375 6.6 -12.3°
